Weather in Kukuy

Russia / Tula Oblast     54°06′54″N   38°03′36″E
temp.,
°C
wind,
m/s
gust,
m/s
humid.,
%
clouds,
%
prec.,
mm/h
press.,
hPa
HPBL,
m
19 september, sun
sun1900:00+8e71354100 0.1 1020787
03:00+5e71483100 1.8 1020694
06:00+5e81591100 3.6 1019566
09:00+5e81693100 8.5 1018562
12:00+6e81694100 3.8 1019695
15:00+6e81595100 7.4 1017686
18:00+6e91694100 2.2 1016819
21:00+6e101795100 7.2 1014775
20 september, mon
mon2000:00+7e91895100 8.6 1012842
03:00+7e91595100 12.6 10121059
06:00+7e91594100 1.4 1011815
09:00+7e91595100 3.1 1011694
12:00+7e81495100 1.1 1011651
15:00+7e81494100 1.4 1011622
18:00+6e91593100 0.4 1011632
21:00+6e91694100 1.3 1011661
21 september, tue
tue2100:00+7ese81396100 0.7 1011613
03:00+8ese61095100 1.0 1011536
06:00+8ese51096100 0.5 1011506
09:00+9se598592 0.7 1011652
12:00+9se61184100 0.1 1011834
15:00+9se61092100 0.5 1011696
18:00+9s4891100 0.1 1012529
21:00+8ssw4886100 0.1 1013426
22 september, wed
wed2200:00+7s1389100 0.0 1013172
03:00+7s018976 0.1 101325
06:00+4ssw129450 0.0 101435
09:00+8s367750 0.0 1014567
12:00+9s466993 0.0 10151067
15:00+10sse456871 0.0 1016985
18:00+8sw227848 0.0 101638
21:00+8nw1179100 0.1 101741
23 september, thu
thu2300:00+7nne1283100 0.1 101755
03:00+7n1288100 0.4 101681
06:00+7wsw1193100 0.9 101629
09:00+8ssw1189100 0.9 1016140
12:00+9sse2280100 0.0 1015405
15:00+11sse2368100 0.0 1014775
18:00+9s2377100 0.1 101448
21:00+7ssw2281100 0.1 101432